a   2.7559766      Node   212.05019     -0.94595557     +0.05388955

e   0.0867659      Incl.    5.61457     -0.31567354     +0.07286742

P   4.58           H   15.8           G   0.15           U   *

Residuals in seconds of arc 

070816 A50  0.3-  0.5+    070816 A50  0.2+  0.0     070821 300  0.2+  0.2-  

070816 A50  0.5-  0.4+    070816 A50  0.6+  0.6-    070821 300  0.2-  0.2+  

070816 A50  0.7-  0.6+    070817 300  0.1-  0.0                             

070816 A50  0.6+  0.6-    070817 300  0.1+  0.2-                            

 

 

2007 QV1 (A00377)

Epoch 2007 Aug. 28.0 TT = JDT 2454340.5                 Nakano

M 320.26234              (2000.0)            P               Q

n   0.21171111     Peri.   89.40506     +0.93179714     -0.35391185

a   2.7880911      Node   291.31949     +0.28899778     +0.85774363

e   0.0736661      Incl.    4.96507     +0.21962326     +0.37285688

P   4.66           H   16.6           G   0.15           U   *

Residuals in seconds of arc 

070820 300  0.0   0.2+    070821 300  0.1+  0.7-    070910 703  0.0   0.9+  

070820 300  0.1-  0.5-    070821 300  0.5-  0.4+    070910 703  0.4-  1.1-  

070820 300  0.0   0.5+    070910 703  0.0   0.4+                            

070821 300  0.5+  0.2+    070910 703  0.3+  0.2-                            

 

 

2007 RN17 (A00410)

Epoch 2007 Sept. 17.0 TT = JDT 2454360.5                Nakano

M  53.66225              (2000.0)            P               Q

n   0.28861671     Peri.  338.24896     +0.34079814     +0.93632010

a   2.2677146      Node   311.56815     -0.84502772     +0.26562636

e   0.1504678      Incl.    6.49457     -0.41204950     +0.22966783

P   3.41           H   16.9           G   0.15           U   *

Residuals in seconds of arc 

070912 300  0.0   0.1-    070912 300  0.2+  0.2+    070913 300  0.0   0.4-  

070912 300  0.2+  0.6+    070913 703  0.2+  0.3+    070913 300  0.3+  0.8-  

070912 300  0.6+  0.8-    070913 703  0.1-  0.1+    070914 699  0.7-  1.0+  

070912 300  0.0   0.2+    070913 703  0.1+  0.6-    070914 699  0.2-  0.0   

070912 300  1.0-  0.7+    070913 703  0.8-  0.7-    070914 699  0.2-  0.1+  

070912 300  0.1+  0.0     070913 300  0.6+  0.5+    070914 699  0.7+  0.4-  

 

 

2007 RZ17 (A00407)

Epoch 2007 Sept. 17.0 TT = JDT 2454360.5                Nakano

M  33.46606              (2000.0)            P               Q

n   0.28445318     Peri.   13.99496     +0.55875552     +0.82753519

a   2.2897893      Node   290.00132     -0.76637484     +0.49007223

e   0.1641408      Incl.    3.32914     -0.31695720     +0.27388817

P   3.46           H   17.5           G   0.15           U   *

Residuals in seconds of arc 

070910 691  0.1+  0.1-    070912 699  0.0   0.5+    070914 704  1.5-  0.6+  

070910 691  0.2+  0.1+    070912 300  0.2+  0.1+    070914 704  0.7+  0.3+  

070910 703  0.2-  0.3-    070912 300  0.4+  0.4-    070914 704  1.3-  0.1+  

070910 691  0.2+  0.1+    070914 691  0.1-  0.4-    070914 300  0.0   0.2-  

070910 703  1.0-  0.2-    070914 704  0.0   0.5+    070914 300  0.7+  0.7-  

070910 703  0.4+  0.1-    070914 704  1.0+  0.2-    070919 691  0.2+  0.0   

070910 703  0.2-  0.7+    070914 691  0.2-  0.7-    070919 691  0.2+  0.1-  

070912 699  0.1+  0.3-    070914 704  0.8+  0.3-    070919 691  0.5-  0.4+  

070912 699  0.5+  0.0     070914 691  0.2-  0.7-                            

070912 699  0.4-  0.6+    070914 704  0.4-  0.9+                            

 

 

2007 RA18 (A00413)

Epoch 2007 Sept. 17.0 TT = JDT 2454360.5                Nakano

M 335.16202              (2000.0)            P               Q

n   0.25967003     Peri.  157.54088     +0.85766566     -0.51286757

a   2.4332580      Node   233.36709     +0.46447239     +0.80364826

e   0.2437821      Incl.    2.64991     +0.22062416     +0.30185483

P   3.80           H   17.1           G   0.15           U   *

Residuals in seconds of arc 

070910 703  0.4-  0.9+    070914 704  0.3+  0.4-    070914 300  0.5-  0.1-  

070910 703  0.3+  0.1+    070914 704  0.4+  0.1+    070917 704  0.5+  0.9+  

070910 703  0.7+  0.5-    070914 704  0.5+  0.7+    070917 704  0.1+  0.4+  

070912 699  0.1+  0.4-    070914 704  0.3+  0.4+    070917 704  1.0+  0.1-  

070912 699  0.0   0.0     070914 699  0.5-  0.3+    070919 691  0.6-  0.3-  

070912 699  0.4-  0.3-    070914 699  0.2-  0.6+    070919 691  0.1-  0.2-  

070913 300  1.6-  0.5-    070914 699  0.6+  0.1+    070919 691  0.1-  0.2-  

070913 300  0.4+  0.4-    070914 699  0.9-  1.1-                            

070914 704  0.0   0.3+    070914 300  0.3+  0.2-                            

 

 

2007 SG (A00416)

Epoch 2007 Sept. 17.0 TT = JDT 2454360.5                Nakano

M 352.03052              (2000.0)            P               Q

n   0.17905803     Peri.  175.62743     +0.98843975     -0.13529165

a   3.1175028      Node   192.77449     +0.12802238     +0.98658184

e   0.2566578      Incl.   18.02851     +0.08122276     +0.09139171

P   5.50           H   15.8           G   0.15           U   *

Residuals in seconds of arc 

070911 703  0.3+  0.4-    070914 300  1.0-  0.1+    070918 300  0.3+  0.3-  

070911 703  0.4+  0.8+    070918 300  0.1+  0.3+    070922 704  0.8-  0.6+  

070911 703  0.2+  0.3+    070918 300  0.3+  0.3+    070922 704  0.0   1.2-  

070911 703  0.3+  0.6-    070918 300  0.4+  0.0     070922 704  0.4+  0.5+  

070914 300  0.8-  0.3-    070918 300  0.2+  0.6+    070922 704  0.3-  0.0   

070914 300  1.0-  0.4+    070918 300  0.1+  0.1+    070922 704  0.3+  0.3-  

070914 300  0.2+  0.9-    070918 300  0.4+  0.0                             

 

日本スペースガード協会            (c) Copyright JSGA 2007           中野 主一

         **** Don't distribute anyone except personal use only ****

                (C) Copyright 2007 OAA/ComputingSection

write mail from CFAD0::NAKANO on 2007-10-04 03:13:40(JST).